sat.trackr.live / text

‹ back to catalog

STARLINK-33662

NORAD 63285 · 2025-053W

PAYLOAD ACTIVE UNKNOWN

§ Identity

Operator
Country
US
Launch date
2025-03-15
Launch site
AFETR
Launch vehicle
Mass (kg)
RCS (m²)

Purposes: comms

External: N2YO · Heavens-Above · Gunter

§ Orbital elements

Epoch: 2026-09-20T06:31:48.661536Z

Period
94.27 min
Inclination
43.0018°
Eccentricity
0.0001329
Mean motion
15.27595032 rev/d
Perigee alt
482.1 km
Apogee alt
483.9 km
Semi-major
6,861.1 km
B*
3.7334e-4
RAAN
222.7587°
Arg perigee
265.5030°
Mean anomaly
94.5670°
Rev number
8,595

§ Raw data

STARLINK-336621 63285U 25053W   26263.27209099  .00010030  00000+0  37334-3 0  99922 63285  43.0018 222.7587 0001329 265.5030  94.5670 15.27595032 85958

JSON: /api/v1/satellites/63285 · /tle

For live sub-satellite position, see the globe view (requires WebGL).

§ Visibility from observer

Set your observer location to see the next 7 days of passes ≥ 10°. The values pass through the URL so the page stays shareable.

No JS? Fill the form by hand. The geolocation button needs JavaScript.